Location: ????????
(55.7667°N, 37.4833°E)
Time: 17:17:30
(UTC+00:00)

IKONOS-2 - Pass Details

Date: 19 May 2025
Orbit: 577 x 585 km, 98.2° (Epoch: 21 June)

Event Time Altitude Azimuth Distance (km) Brightness Sun altitude
Rises 18:43:58 0° 16° (NNE) 2,809 8.5 -6.8°
Reaches altitude 10° 18:46:08 10° 17° (NNE) 1,905 7.6 -7.0°
Maximum altitude 18:50:16 81° 105° (ESE) 595 4.4 -7.4°
Drops below altitude 10° 18:54:22 10° 193° (SSW) 1,894 6.7 -7.7°
Sets 18:56:31 0° 195° (SSW) 2,790 7.5 -7.9°
